Dewpoint
12 12 12 12 12 12 12 11 11 11 11 11 11 11 10 10 10 9 8 7 7 6 6 6 7 8 10 11 11 11 11 10 9 8 9 11 11 11 10 9 10 11
12 11 11 11 11 11 11 11 11 11 10 10 10 10 10 10 9 9 8 8 8 7 7 7 8 9 9 10 11 11 11 10 9 8 8 10 11 11 10 9 9 10
11 11 11 10 10 10 10 10 10 10 10 10 10 10 10 10 9 9 9 8 8 7 8 9 10 10 9 10 11 11 11 11 10 9 10 10 10 10 10 9 9 10
11 10 10 10 10 10 10 10 10 10 10 10 10 10 10 10 9 9 9 8 8 8 9 10 11 10 10 11 11 11 11 11 10 10 10 10 10 10 9 9 9 9
10 10 10 10 10 9 9 10 10 9 9 9 9 9 10 10 9 9 9 8 8 9 10 10 11 11 11 11 11 11 11 11 11 10 10 10 10 10 9 8 8 8
10 9 8 8 8 8 8 8 8 8 8 9 9 9 10 10 9 9 9 8 9 9 9 9 10 10 11 11 11 11 11 11 11 11 11 10 11 11 10 9 8 7
9 8 7 8 8 9 9 9 9 9 9 9 10 10 10 10 9 9 9 9 9 9 9 9 9 9 10 10 10 10 11 11 11 11 11 11 11 11 10 9 9 8
8 8 8 9 9 10 10 9 9 9 9 9 9 10 10 9 9 9 9 9 9 9 8 8 8 8 9 9 9 10 10 11 11 11 11 11 11 11 10 10 10 10
8 8 8 9 9 10 9 9 9 9 8 9 9 9 9 9 9 9 9 8 9 9 8 7 7 8 9 10 10 10 10 11 11 11 11 11 11 11 11 10 10 10
8 8 9 9 9 8 8 8 8 8 8 7 8 9 9 9 9 10 9 9 8 8 8 8 7 8 9 10 11 10 10 10 11 11 11 10 11 11 11 11 10 10
8 8 8 8 7 7 7 7 8 8 7 7 8 8 8 8 9 9 9 9 8 9 9 9 8 8 9 10 11 11 10 10 11 11 11 11 11 11 10 10 9 9
7 7 7 6 6 7 7 7 7 7 7 7 7 8 8 8 8 9 9 9 9 9 9 9 8 9 9 10 11 11 10 10 11 11 11 11 11 10 10 9 9 9
6 6 6 6 7 7 7 6 6 6 6 6 7 8 8 8 8 9 9 9 9 9 9 9 8 9 9 10 10 10 10 11 11 10 10 10 10 10 10 10 10 10
6 6 6 6 7 6 5 5 5 5 5 5 6 8 8 8 8 9 9 9 9 9 9 9 9 9 9 10 11 10 10 11 10 10 10 10 10 10 10 10 10 10
6 6 5 6 5 5 4 4 4 5 5 5 6 7 8 8 8 8 9 9 9 9 9 9 9 9 10 10 10 10 10 10 10 10 10 11 10 10 10 10 9 9
6 5 5 5 5 4 4 5 5 5 6 6 6 7 8 8 7 7 7 8 8 8 9 9 9 10 10 10 10 10 10 10 10 10 11 10 10 10 10 10 9 9
6 5 5 5 5 5 5 6 6 6 7 7 7 7 7 7 7 7 7 7 8 8 9 9 9 10 10 10 10 10 9 9 10 10 10 9 9 10 10 10 10 10
5 5 5 6 5 6 6 6 6 7 7 7 7 7 7 7 7 7 7 8 8 9 10 10 9 10 11 10 10 10 10 9 9 10 10 9 9 10 10 10 10 10
5 5 6 6 6 6 6 6 6 6 6 6 6 6 7 7 8 8 8 9 9 9 10 10 10 10 10 10 10 10 9 9 9 9 9 9 9 9 10 10 10 9
5 5 6 6 6 6 5 5 5 4 5 6 6 6 7 8 8 8 8 9 9 9 10 10 10 10 10 9 9 9 8 8 9 9 9 9 9 9 9 10 10 9
5 6 6 7 7 6 5 5 4 4 4 5 6 6 7 8 8 8 8 9 9 9 9 9 9 9 9 8 8 8 8 8 8 9 9 9 9 10 10 10 10 10
6 6 7 7 6 6 5 5 5 4 4 5 5 6 7 7 7 7 8 8 9 8 8 8 9 8 7 7 7 7 6 6 6 6 7 8 9 9 10 10 10 10
6 6 6 6 6 5 5 5 4 4 4 4 5 5 6 6 7 7 7 8 8 8 8 8 8 7 5 5 5 5 4 4 4 5 6 7 8 9 9 10 9 9
6 6 6 5 5 5 5 5 4 4 4 4 4 5 5 6 6 6 7 8 8 8 8 8 7 6 5 4 4 4 3 3 3 4 5 6 7 8 8 8 9 9
6 6 5 5 5 5 5 5 4 4 4 4 4 5 5 6 6 6 7 7 7 8 8 7 7 6 5 5 4 3 3 3 3 3 3 4 5 7 7 7 8 9
5 6 5 5 5 5 5 5 5 5 5 4 5 5 5 5 6 6 7 7 7 7 7 7 7 7 6 5 5 4 3 3 2 3 3 3 4 6 6 6 7 7
Wind_Speed
12 14 15 15 16 17 17 18 19 19 19 20 20 20 19 18 18 19 20 20 22 24 26 26 26 26 25 26 27 27 27 25 23 22 23 21 21 21 20 20 23 24
15 15 16 16 17 17 17 18 18 19 19 19 20 20 20 19 19 19 20 21 23 24 25 24 24 24 23 24 25 25 24 24 22 20 20 20 20 19 19 20 22 23
15 15 15 15 16 15 16 17 17 18 19 19 20 20 20 20 20 20 20 21 22 22 21 20 21 21 20 20 22 21 21 22 22 20 20 19 18 18 18 19 21 22
13 13 13 13 14 14 16 17 18 19 20 21 22 21 20 19 19 20 20 20 19 18 16 16 16 16 16 17 18 19 19 20 20 19 19 19 18 19 19 19 20 22
11 12 12 12 14 15 16 17 19 19 20 19 19 17 17 17 17 18 18 17 16 16 15 14 13 12 13 14 16 18 18 18 19 20 20 20 19 19 20 20 21 22
9 10 10 8 8 9 10 12 13 14 14 13 13 13 14 15 16 16 16 16 15 15 14 12 11 11 11 12 14 16 17 18 19 20 21 20 19 20 20 21 22 23
7 6 4 2 2 4 5 7 8 8 9 9 10 12 13 14 15 14 15 15 15 14 13 12 11 11 11 12 13 15 17 17 18 20 20 20 19 20 21 21 21 22
2 2 3 2 1 2 3 4 6 7 7 8 10 11 12 13 14 13 13 14 14 14 13 11 11 11 11 12 13 15 16 17 18 19 19 20 21 21 21 21 22 22
4 3 3 2 1 1 4 5 6 7 8 8 9 10 11 12 12 12 12 13 14 13 11 11 11 10 9 9 10 12 15 16 18 18 17 19 20 21 20 20 21 21
5 3 2 1 1 2 4 5 7 9 10 9 9 10 11 11 12 12 11 12 13 12 10 10 10 9 8 7 8 10 12 14 17 17 15 15 17 18 17 17 18 19
4 2 0 2 3 4 4 5 8 10 11 11 10 10 11 11 11 11 11 11 11 11 9 9 9 8 6 6 7 8 10 12 14 15 14 14 15 14 14 15 17 18
3 1 1 3 4 5 6 7 8 9 10 11 11 10 10 10 10 10 10 10 10 10 9 8 8 7 5 6 6 7 9 10 11 11 11 12 13 12 13 15 15 16
4 4 3 5 6 7 7 8 9 10 10 11 12 11 9 9 9 9 10 10 9 9 8 8 8 7 6 6 6 6 7 8 8 7 7 8 8 10 12 14 14 15
6 7 8 9 8 8 8 9 10 11 12 12 13 11 9 10 11 10 10 10 8 8 9 8 8 8 6 6 6 5 5 7 7 6 7 7 6 8 11 13 14 14
6 7 10 10 9 8 9 10 11 12 12 12 13 12 9 10 11 11 11 10 8 8 8 8 8 7 5 5 4 4 4 5 6 6 7 7 7 7 10 13 14 14
6 8 11 11 10 11 12 13 14 14 13 13 13 13 11 11 11 11 11 10 8 8 8 8 7 5 4 4 3 4 4 3 2 4 6 6 6 7 9 12 13 13
9 11 12 12 13 15 16 17 17 16 16 15 13 13 12 12 11 11 11 10 9 8 8 7 6 5 5 5 3 3 3 2 2 2 1 2 2 4 7 9 10 12
10 13 13 14 16 17 18 18 18 18 18 17 17 16 16 15 14 14 13 12 10 9 8 7 7 6 7 6 4 3 4 3 3 2 1 2 1 2 4 5 7 9
11 13 14 15 17 18 17 18 19 20 20 21 20 21 22 23 23 21 18 15 13 12 11 9 8 8 8 8 7 6 7 6 5 4 2 0 1 2 3 2 3 6
12 13 14 15 16 16 16 17 19 20 21 22 22 23 25 26 25 24 22 18 16 13 11 9 11 12 12 11 10 10 9 9 7 5 3 2 1 1 2 3 4 5
12 13 13 13 14 14 15 17 18 19 21 21 22 23 24 24 25 26 25 23 20 17 17 17 18 19 19 19 17 15 14 13 13 11 8 4 2 1 1 3 4 4
12 13 13 12 12 13 15 17 18 19 20 20 20 21 21 22 23 25 26 26 24 23 25 26 25 25 26 26 24 21 20 20 21 20 17 12 7 2 1 3 3 2
12 12 12 12 12 13 15 17 18 18 19 19 19 19 20 21 22 24 25 26 25 25 26 27 28 27 27 26 26 24 23 23 24 25 26 24 17 8 3 5 6 5
12 12 12 12 13 14 16 17 18 18 19 19 18 19 20 21 22 23 24 25 25 24 25 26 27 26 23 22 23 21 21 20 20 22 24 26 24 18 14 13 10 7
12 12 13 13 14 14 15 17 18 19 19 19 19 20 20 20 21 22 24 25 25 24 25 25 24 23 21 19 19 17 17 15 14 15 18 19 20 19 18 16 12 7
13 13 13 14 15 15 17 18 20 20 20 20 21 21 21 21 22 23 25 26 25 25 24 23 22 21 19 18 17 16 16 15 15 16 16 16 17 20 20 20 17 15
Wind_Direction
253 257 262 266 267 270 273 274 276 277 280 283 287 292 298 299 298 298 298 299 299 298 296 293 286 278 273 270 267 264 261 259 258 259 258 255 255 256 253 254 256 253
251 255 260 264 266 268 269 272 274 276 280 285 290 295 299 298 297 300 301 302 302 301 297 294 288 280 274 270 266 261 258 261 259 251 245 244 247 250 246 247 254 256
245 248 251 257 261 262 263 266 270 275 280 285 289 294 296 297 300 302 303 304 304 300 295 291 289 284 279 274 269 260 256 260 257 246 239 237 238 240 237 238 247 253
240 245 249 255 259 260 263 268 273 277 281 285 288 290 292 297 301 303 305 306 303 299 297 295 294 292 285 277 268 261 258 256 249 242 238 233 232 234 233 231 237 245
240 251 259 262 264 265 268 272 277 281 285 289 292 293 294 298 302 306 308 307 305 307 309 304 297 294 287 274 260 256 259 253 242 239 238 234 230 230 229 227 229 236
250 263 273 277 274 276 281 283 285 289 294 300 302 300 300 301 305 311 312 308 307 314 317 312 304 294 284 274 259 254 256 251 241 238 238 236 233 231 228 226 227 231
251 259 267 287 316 316 310 303 303 305 307 309 307 304 302 303 306 312 314 310 309 313 314 313 309 295 280 273 263 255 252 250 245 240 239 238 237 235 230 227 227 229
185 153 130 117 75 342 316 315 316 315 311 307 306 305 304 304 306 310 313 313 313 311 305 305 308 300 283 271 265 256 251 251 250 243 238 237 237 235 231 229 229 229
107 89 103 117 117 316 317 322 319 313 306 305 309 311 311 310 310 309 309 312 316 314 304 302 306 305 292 276 268 259 253 254 253 244 235 235 235 230 228 230 230 229
104 87 62 360 305 315 325 323 317 313 310 314 318 320 324 324 318 313 311 312 317 318 312 308 310 312 307 292 278 263 254 257 258 247 232 232 233 227 227 230 229 227
105 118 31 328 324 338 344 333 327 323 320 323 326 326 331 332 325 320 321 322 324 322 316 315 316 320 322 309 290 268 255 257 261 253 238 232 230 225 225 227 226 225
69 112 281 344 6 9 4 352 345 341 336 336 338 335 331 332 332 332 331 331 332 328 321 322 324 322 321 314 294 268 253 254 256 252 245 241 232 223 224 227 228 229
48 57 45 43 43 31 14 2 355 353 351 349 348 344 333 332 343 351 346 336 332 331 327 329 332 327 321 311 294 272 253 255 255 242 240 244 234 224 227 231 233 235
53 57 60 62 56 38 16 2 356 353 352 352 355 356 348 341 348 357 353 342 337 334 330 331 333 331 327 314 299 284 255 251 251 242 241 244 234 228 231 233 235 237
58 60 67 68 56 37 17 5 0 358 358 2 5 6 359 345 346 351 351 350 350 347 341 339 337 335 335 325 314 317 296 265 251 248 248 245 239 231 227 228 233 238
62 69 73 68 51 39 31 25 24 22 22 22 18 14 6 354 351 352 354 0 3 359 355 353 352 351 350 346 340 336 325 306 288 266 249 242 247 242 233 232 237 241
71 75 73 63 54 51 49 46 44 42 41 40 34 26 15 3 357 357 5 16 17 10 8 10 14 16 14 17 11 339 327 336 351 331 222 216 254 254 248 247 243 242
79 79 74 66 64 63 61 58 55 53 52 49 44 41 36 30 29 29 33 36 35 35 35 33 35 38 37 43 48 19 1 357 346 353 148 176 203 220 238 249 242 239
82 81 78 75 75 74 69 64 60 57 54 51 49 48 46 43 42 41 44 46 48 52 51 44 49 55 50 44 40 30 21 16 13 12 22 76 246 227 216 230 242 242
85 85 84 84 85 81 73 66 60 57 55 54 53 52 52 50 47 46 47 47 47 54 64 76 82 77 64 51 43 39 31 22 21 19 14 28 5 274 245 244 242 239
90 92 92 92 90 85 76 69 64 60 59 57 56 58 59 58 56 55 55 54 55 65 76 83 81 75 67 59 51 50 49 43 39 36 27 17 13 7 282 239 229 225
97 99 100 96 90 84 80 75 70 67 65 64 64 67 69 68 65 64 66 67 68 73 76 76 74 71 69 65 61 59 60 60 55 50 45 37 24 357 211 181 176 180
104 105 101 94 85 80 80 79 76 72 70 69 69 72 74 74 73 74 76 77 76 74 75 77 77 76 72 69 67 63 60 60 56 52 51 46 39 37 74 100 89 78
109 108 103 94 85 80 80 80 77 74 72 72 71 74 77 78 80 81 82 82 80 77 77 79 79 76 69 64 64 61 57 54 48 47 48 45 41 42 50 56 57 57
110 111 106 99 91 86 84 82 81 79 77 76 75 77 80 82 83 86 86 86 85 83 82 82 80 74 65 58 57 57 55 54 50 51 52 47 41 41 45 46 45 55
101 106 105 101 95 90 88 86 85 84 81 80 79 80 82 84 85 88 89 88 87 86 85 82 79 76 71 66 66 66 63 63 65 68 70 69 62 58 58 58 60 74
Height
1523 1522 1521 1520 1519 1518 1517 1516 1515 1514 1513 1512 1511 1511 1510 1509 1509 1508 1507 1505 1504 1501 1499 1498 1497 1495 1495 1494 1493 1494 1494 1495 1495 1496 1497 1498 1499 1500 1500 1501 1501 1502
1521 1521 1520 1519 1518 1517 1516 1515 1514 1512 1511 1511 1509 1509 1508 1507 1507 1506 1504 1502 1500 1498 1496 1494 1493 1492 1491 1491 1490 1490 1491 1492 1492 1493 1493 1493 1495 1496 1497 1498 1499 1500
1520 1519 1518 1517 1516 1515 1515 1513 1512 1511 1510 1509 1508 1507 1506 1505 1504 1503 1501 1500 1497 1495 1493 1491 1490 1489 1488 1488 1487 1488 1489 1489 1489 1490 1490 1490 1491 1492 1493 1495 1497 1498
1518 1518 1517 1516 1515 1514 1513 1512 1511 1509 1508 1507 1506 1505 1504 1503 1502 1500 1499 1497 1495 1493 1490 1489 1487 1486 1485 1485 1485 1485 1486 1486 1487 1487 1487 1488 1488 1489 1490 1491 1494 1495
1517 1517 1516 1515 1514 1513 1512 1510 1509 1508 1507 1505 1504 1503 1502 1501 1500 1498 1496 1495 1493 1490 1488 1486 1485 1484 1483 1483 1483 1483 1484 1484 1485 1485 1485 1485 1486 1487 1488 1489 1490 1492
1516 1515 1514 1513 1512 1511 1510 1509 1508 1507 1505 1504 1503 1502 1501 1499 1498 1496 1494 1492 1490 1488 1486 1485 1484 1483 1482 1481 1481 1481 1482 1482 1483 1483 1483 1483 1484 1485 1486 1487 1488 1490
1515 1514 1513 1512 1511 1510 1509 1508 1507 1506 1504 1503 1502 1500 1499 1497 1496 1494 1492 1490 1488 1487 1485 1484 1482 1482 1481 1480 1480 1480 1480 1481 1481 1481 1482 1482 1482 1483 1484 1485 1486 1487
1514 1513 1512 1511 1510 1509 1508 1507 1506 1505 1504 1502 1500 1499 1497 1496 1494 1492 1490 1488 1487 1485 1484 1482 1481 1481 1480 1479 1478 1478 1479 1479 1479 1479 1479 1480 1481 1481 1482 1483 1485 1486
1513 1512 1511 1510 1509 1508 1507 1506 1505 1504 1503 1501 1499 1498 1496 1494 1492 1490 1488 1487 1485 1484 1482 1481 1480 1479 1478 1477 1477 1477 1477 1477 1477 1477 1478 1478 1479 1480 1481 1483 1484 1485
1512 1511 1511 1510 1508 1507 1507 1506 1505 1503 1501 1499 1498 1496 1494 1493 1490 1489 1487 1486 1484 1483 1482 1480 1479 1478 1477 1476 1476 1476 1476 1476 1476 1476 1477 1478 1478 1479 1481 1483 1483 1484
1511 1510 1510 1509 1507 1506 1506 1505 1503 1502 1500 1498 1496 1494 1493 1491 1489 1487 1486 1484 1484 1482 1481 1480 1478 1477 1476 1476 1476 1476 1476 1476 1475 1475 1476 1476 1477 1479 1480 1481 1482 1483
1510 1509 1508 1507 1507 1506 1505 1504 1502 1500 1498 1496 1494 1493 1491 1489 1488 1486 1485 1484 1483 1481 1480 1479 1478 1477 1476 1476 1476 1476 1477 1476 1476 1476 1476 1476 1477 1479 1480 1480 1481 1482
1509 1508 1508 1507 1506 1505 1504 1503 1501 1499 1497 1495 1493 1492 1490 1488 1487 1485 1484 1483 1482 1481 1480 1479 1478 1477 1476 1476 1476 1477 1477 1477 1476 1477 1476 1476 1477 1478 1479 1480 1481 1482
1508 1508 1507 1506 1506 1505 1503 1502 1500 1498 1496 1494 1493 1491 1489 1488 1486 1485 1484 1483 1482 1481 1480 1479 1478 1477 1477 1477 1477 1477 1477 1477 1477 1477 1477 1477 1478 1479 1479 1480 1481 1481
1508 1508 1507 1506 1505 1504 1503 1501 1499 1497 1495 1494 1492 1491 1489 1488 1486 1485 1484 1483 1482 1481 1480 1479 1478 1477 1476 1477 1478 1478 1479 1478 1478 1478 1478 1477 1478 1478 1479 1479 1480 1481
1508 1507 1507 1506 1505 1504 1503 1501 1499 1497 1496 1494 1493 1491 1489 1488 1486 1485 1484 1483 1482 1481 1480 1479 1478 1477 1477 1478 1479 1480 1480 1479 1479 1478 1478 1477 1477 1478 1478 1479 1480 1480
1508 1507 1507 1506 1505 1504 1503 1501 1500 1498 1497 1495 1493 1492 1490 1488 1486 1485 1484 1483 1482 1481 1480 1479 1479 1478 1478 1479 1480 1481 1480 1480 1479 1479 1478 1478 1478 1478 1478 1479 1479 1479
1508 1507 1507 1506 1505 1504 1503 1502 1501 1500 1498 1497 1495 1493 1491 1489 1487 1485 1484 1483 1482 1481 1480 1480 1480 1480 1480 1480 1481 1481 1481 1481 1480 1480 1479 1479 1479 1479 1479 1479 1480 1479
1508 1508 1507 1507 1506 1505 1505 1504 1503 1501 1500 1498 1496 1494 1492 1490 1489 1487 1485 1484 1483 1482 1481 1481 1481 1481 1481 1482 1483 1483 1483 1482 1482 1481 1481 1480 1480 1480 1480 1480 1480 1480
1509 1508 1508 1507 1507 1507 1506 1505 1504 1503 1501 1500 1498 1496 1494 1493 1491 1489 1487 1485 1484 1483 1483 1483 1483 1483 1483 1483 1484 1484 1484 1484 1483 1483 1482 1482 1481 1481 1481 1481 1481 1481
1509 1509 1508 1508 1508 1508 1507 1506 1505 1504 1503 1501 1500 1498 1497 1496 1494 1492 1490 1488 1487 1486 1486 1486 1485 1485 1485 1485 1486 1486 1485 1485 1485 1484 1483 1483 1482 1482 1482 1482 1481 1481
1510 1509 1509 1509 1509 1509 1508 1507 1507 1506 1504 1503 1502 1501 1499 1498 1497 1495 1494 1492 1491 1491 1490 1489 1488 1488 1488 1488 1488 1489 1488 1487 1487 1486 1485 1484 1484 1483 1483 1482 1483 1482
1510 1510 1510 1510 1510 1509 1509 1509 1508 1507 1506 1505 1504 1503 1501 1500 1499 1498 1497 1496 1495 1494 1493 1492 1491 1491 1491 1490 1491 1491 1490 1489 1489 1488 1487 1486 1485 1485 1484 1484 1484 1483
1511 1511 1511 1511 1511 1511 1511 1510 1510 1509 1508 1507 1506 1505 1503 1502 1501 1500 1499 1498 1497 1497 1496 1495 1494 1495 1494 1494 1493 1493 1492 1491 1491 1489 1488 1488 1488 1488 1487 1486 1486 1486
1512 1512 1512 1512 1512 1512 1512 1512 1512 1511 1510 1509 1508 1507 1506 1505 1504 1502 1501 1500 1500 1500 1499 1498 1498 1498 1497 1497 1496 1495 1494 1493 1492 1491 1490 1491 1491 1491 1490 1489 1489 1489
1513 1513 1513 1513 1513 1513 1513 1513 1513 1513 1512 1511 1510 1509 1508 1507 1506 1505 1503 1503 1503 1502 1501 1501 1501 1500 1500 1500 1499 1498 1497 1496 1494 1493 1492 1493 1493 1493 1493 1492 1492 1492